Regional Weather Roundup
Issued by NWS Lake Charles, LA

Home | Current Version | Previous Version | Text Only | Print | Product List | Glossary On
Versions: 1 2 3 4 5 6 7 8 9 10 11 12 13 14 15 16 17 18 19 20 21 22 23 24 25 26 27 28 29 30 31 32 33 34 35 36 37 38 39 40 41 42 43 44 45 46 47 48 49 50
000
ASUS44 KLCH 061910
RWRLCH
RWRLCH
REGIONAL WEATHER ROUNDUP
NATIONAL WEATHER SERVICE LAKE CHARLES LA
200 PM CDT WED MAY 06 2015

Note: "fair" indicates few or no clouds below 12,000 feet with no
significant weather and/or obstructions to visibility.


ACROSS SOUTHEAST TEXAS

CITY           SKY/WX    TMP DP  RH WIND       PRES   REMARKS
BEAUMONT       PTSUNNY   80  69  69 SE13      30.01F
BEAUMONT CITY  MOCLDY    80  69  69 S9G20     30.01F
ORANGE         MOCLDY    80  64  58 SE12      30.03F
JASPER         NOT AVBL
$$

ACROSS CENTRAL LOUISIANA

CITY           SKY/WX    TMP DP  RH WIND       PRES   REMARKS
LEESVILLE      MOSUNNY   82  64  53 S8        30.01F
FULLERTON      MOCLDY    83  64  52 VRB6      30.00F
ALEXANDRIA INT PTSUNNY   80  63  55 SE12      30.02F
ESLER FIELD    PTSUNNY   83  63  50 VRB5      30.04F
DERIDDER       MOCLDY    82  65  57 SE6       30.04F
OAKDALE        MOCLDY    81  66  60 E9        30.03F
OPELOUSAS        N/A    N/A N/A N/A E7        30.03F
$$

ACROSS SOUTHWEST AND SOUTH CENTRAL LOUISIANA

CITY           SKY/WX    TMP DP  RH WIND       PRES   REMARKS
SULPHUR        PTCLDY    84  68  57 SE14      30.02F
LAKE CHARLES   MOSUNNY   83  67  58 SE14      30.01F
CHENNAULT INT  PTSUNNY   82  68  61 SE10      30.02F
CAMERON PHI    CLEAR     79  72  78 SE14G20   30.05S
DEQUINCY       MOCLDY    82  67  60 S9        30.01F
JENNINGS       MOCLDY    82  67  60 SE7G20    30.02F
LAFAYETTE      PTSUNNY   83  63  50 S7        30.03F
NEW IBERIA     MOSUNNY  N/A N/A N/A SE23      30.03F
ABBEVILLE        N/A     82  64  55 S12       30.03F
PATTERSON      MOSUNNY  N/A N/A N/A SE13      30.04F
SALT POINT       N/A     81  67  62 SE9G18    30.02F
$$

SELECTED SITES ACROSS THE REGION

CITY           SKY/WX    TMP DP  RH WIND       PRES   REMARKS
HOUSTON BUSH   LGT RAIN  78  72  81 SE6       29.95F
HOUSTON HOBBY  MOSUNNY   86  71  60 S13G22    29.95F
GALVESTON      MOSUNNY   82  73  74 SE15      29.98F
COLLEGE STAT   PTSUNNY   81  70  69 SE13G21   29.94F
CONROE         MOSUNNY   77  71  82 SE12      29.97F
HUNTSVILLE     PTSUNNY   79  69  71 VRB6      29.97F
LUFKIN         PTSUNNY   75  67  76 SE10      29.98F
SHREVEPORT     PTSUNNY   82  64  54 S15       30.00F
MONROE         PTSUNNY   81  61  50 S9        30.06F
NATCHEZ MS     MOSUNNY   81  63  54 SE3       30.06F
BATON ROUGE    MOSUNNY   85  63  47 SE9       30.04F
N.O. INTL ARPT PTSUNNY   85  62  46 S13       30.05F
SLIDELL        PTSUNNY   81  68  64 SE13      30.06F
$$

MARINE REPORTS

STATION/POSITION TIME  TEMP    WIND        PRES    VSBY  WAVE
                       AIR SEA DIR/SP/G                  HT/PER
                 (UTC) (F)     (DEG/KT/KT) (MB)    (MI)  (FT/S)
BUOY 30 S HIGH I 1850   76 76  110/ 14/ 17 1014.9F         4/ 7
SEA RIM ST PARK  1900   78     120/ 12/ 15 1016.7F
PORT ARTHUR      1806      74  130/  7/ 12 1016.7F
SABINE PASS N    1800   76 76  140/ 14/ 17 1016.6F
TEXAS POINT      NOT AVBL
CALCASIEU PASS   1800   77 77  150/ 14/ 17   N/A
LK CHARLES BEACH 1800   81 72              1016.9F
MARSH ISLAND     1800   76     130/ 15/ 17   N/A           0
FRESH WATER LOCK 1800   77 76  110/ 11/ 17 1017.2F
AMERADA PASS     1800   79 72  130/  6/ 11 1017.6F
$$



USA.gov is the U.S. government's official web portal to all federal, state and local government web resources and services.